Regional Weather Roundup
Issued by NWS Charleston, SC

Current Version | Previous Version | Graphics & Text | Print | Product List | Glossary On
Versions: 1 2 3 4 5 6 7 8 9 10 11 12 13 14 15 16 17 18 19 20 21 22 23 24 25 26 27 28 29 30 31 32 33 34 35 36 37 38 39 40 41 42 43 44 45 46 47 48 49 50
000
ASUS42 KCHS 302210
RWRCHS
REGIONAL WEATHER ROUNDUP
NATIONAL WEATHER SERVICE CHARLESTON SC
600 PM EDT TUE SEP 30 2014

NOTE: "FAIR" INDICATES FEW OR NO CLOUDS BELOW 12,000 FEET WITH NO
SIGNIFICANT WEATHER AND/OR OBSTRUCTIONS TO VISIBILITY.

NOT ALL STATIONS ARE QUALITY CONTROLLED BY THE NATIONAL
WEATHER SERVICE. USE DATA WITH CAUTION...ESPECIALLY
DEWPOINT OBSERVATIONS.

SCZ027-030-031-034>040-042>050-302300-
...SOUTH CAROLINA...

CITY           SKY/WX    TMP DP  RH WIND       PRES   REMARKS
N CHARLESTON   MOSUNNY   82  63  52 CALM      29.84S
WATERFRONT PRK   N/A     77 N/A N/A SE6         N/A
FORT JOHNSON   NOT AVBL
MOUNT PLEASANT FAIR      79  64  61 CALM      29.84R
JOHNS ISLAND   CLEAR     77  73  88 SE3       29.85R
PINOPOLIS        N/A     82  66  57 NW5       29.77F
MONCKS CORNER  FAIR      79  68  69 CALM      29.85R
SUMMERVILLE    FAIR      81  64  57 CALM      29.86R
BEAUFORT MCAS  MOSUNNY   82  63  52 N5        29.84S
BEAUFORT ARPT  FAIR      79  64  61 CALM      29.84S
HILTON HEAD IS SUNNY     79  68  69 E3        29.86R
GEORGETOWN     NOT AVBL
WALTERBORO     CLEAR     81  59  47 N5        29.86R
ORANGEBURG     SUNNY     81  61  50 NE3       29.85S
BARNWELL       FAIR      82  63  51 NE3       29.86S
AIKEN          FAIR      81  64  57 N3        29.90S
MANNING        FAIR      81  66  61 N3        29.84S
KINGSTREE      NOT AVBL
COLUMBIA       MOSUNNY   84  59  42 N6        29.85R
SUMTER         SUNNY     81  60  49 VRB7      29.84S
FLORENCE       SUNNY     81  62  52 N5        29.85S
MYRTLE BEACH   MOSUNNY   82  63  51 N9        29.83S
N MYRTLE BEACH PTSUNNY   81  64  56 N8        29.83R

$$

GAZ063-065-086>088-099>101-113>116-118-119-134-136>141-150-302300-
...GEORGIA...

CITY           SKY/WX    TMP DP  RH WIND       PRES   REMARKS
SAVANNAH ARPT  MOSUNNY   83  65  54 NE5       29.85R
HUNTER AAF     PTSUNNY   81  67  64 E3        29.83R
FORT STEWART   PTSUNNY   81  65  59 VRB1      29.84S
STATESBORO     NOT AVBL
SYLVANIA       CLEAR     83  69  60 NE3       29.86S
CLAXTON        MOCLDY    81  66  61 CALM      29.85S
THOMSON        SUNNY     82  69  66 CALM      29.91S
AUGUSTA-BUSH   SUNNY     80  61  52 CALM      29.85R
AUGUSTA-DANIEL SUNNY     82  62  50 NW5       29.87S
SWAINSBORO     CLOUDY    81  70  69 CALM      29.87S
VIDALIA        CLOUDY    79  68  69 NW5       29.86S
ALMA           CLOUDY    77  68  73 N3        29.86R
WAYCROSS       CLOUDY    80  73  78 NE3       29.85R
JESUP          FAIR      79  72  78 CALM      29.85S
BRUNSWICK      SUNNY     79  66  65 N5        29.86R
SAINT SIMONS   SUNNY     78  66  66 NE8       29.85R

$$

SCZ027-028-034-036>038-045-046-048>050-GAZ119-141-302300-
...LAKE AND SUPPLEMENTAL COASTAL OBSERVATIONS...

STATION/POSITION TIME  TEMP    WIND        PRES    WAVE   SWELL
                       AIR SEA DIR/SP/G            HT/PER HT/PER/DIR
                 (UTC) (F)     (DEG/KT/KT) (MB)    (FT/S) (FT/S/D)
UPR LAKE MARION  NOT AVBL
WINYAH BAY       2100   76     100/  5     1010.0S
LAKE MURRAY      2100   81     190/  5/  6 1010.5S
ACE BASIN NERRS  2100   83      40/  2     1011.0S
FORT PULASKI     2200   76      80/  8/  9 1010.9R
SAPELO ISLAND    NOT AVBL

$$

ANZ835-935-AMZ111-154-330-350-352-354-374-450-454-472-302300-
...C-MAN AND BUOY OBSERVATIONS...

STATION/POSITION TIME  TEMP    WIND        PRES    WAVE   SWELL
                       AIR SEA DIR/SP/G            HT/PER HT/PER/DIR
                 (UTC) (F)     (DEG/KT/KT) (MB)    (FT/S) (FT/S/D)
FOLLY BEACH CMAN 2100   75      90/  5/  6 1010.9F
BUOY 41004       2200   76 81   20/ 14/ 17 1009.7R   4/ 6   2/ 9
BUOY 41008       2200   75 79   20/ 10/ 14 1010.6R   4/ 6   3/ 70/ 6
5E ST. MARYS GA  2200      79                N/A     4/ 6
FRYING PAN BUOY  NOT AVBL
BUOY 41025       2200   74     350/ 17/ 19 1009.4R   4/ 6   2/ 50/ 7
CAPE LOOKOUT NC  2100   75      40/ 13/ 15 1009.8R
BUOY 41002       2144   76 81   90/ 14/ 17 1007.1S   3/ 7   2/ 70/ 7
BUOY 41010       2200   80 84  310/ 12/ 14 1009.1S   3/ 5   2/ 80/ 8
BUOY 41012       NOT AVBL
ST AUGUSTINE FL  2200   76      10/ 18/ 19 1010.6S
CAPERS NEARSHORE 2100   77     100/  6/  8   N/A
FRIPP NEARSHORE  NOT AVBL


$$



USA.gov is the U.S. government's official web portal to all federal, state and local government web resources and services.